This is the latest recevied weather packets stored in our database for station/object Kisslegg. If no packets are shown the sender has not sent any weather packets the latest 10 day(s).
| Time | Temp. | Humidity | Pressure | Rain* | Wind** | Luminosity | Snow |
|---|---|---|---|---|---|---|---|
| 1777352531 | 8.89° C | 65% | 1015.1 hPa | 0 mm | - | - | - |
| 1777350732 | 8.89° C | 64% | 1015 hPa | 0 mm | - | - | - |
| 1777348932 | 9.44° C | 62% | 1015.2 hPa | 0 mm | - | - | - |
| 1777347133 | 9.44° C | 60% | 1015.2 hPa | 0 mm | - | - | - |
| 1777345331 | 9.44° C | 58% | 1015.4 hPa | 0 mm | - | - | - |
| 1777343532 | 10° C | 55% | 1015.7 hPa | 0 mm | - | - | - |
| 1777341732 | 10° C | 54% | 1015.8 hPa | 0 mm | - | - | - |
| 1777339933 | 10.56° C | 54% | 1015.9 hPa | 0 mm | - | - | - |
| 1777338131 | 10.56° C | 54% | 1016 hPa | 0 mm | - | - | - |
| 1777336329 | 10.56° C | 53% | 1016.1 hPa | 0 mm | - | - | - |
| 1777334529 | 10.56° C | 52% | 1016.2 hPa | 0 mm | - | - | - |
| 1777332730 | 10.56° C | 52% | 1016.3 hPa | 0 mm | - | - | - |
| 1777330929 | 11.11° C | 52% | 1016.4 hPa | 0 mm | - | - | - |
| 1777329129 | 11.11° C | 53% | 1016.6 hPa | 0 mm | - | - | - |
| 1777327329 | 11.67° C | 54% | 1016.9 hPa | 0 mm | - | - | - |
| 1777325530 | 11.67° C | 55% | 1016.9 hPa | 0 mm | - | - | - |
| 1777323730 | 12.22° C | 55% | 1017.1 hPa | 0 mm | - | - | - |
| 1777321930 | 12.78° C | 54% | 1017.2 hPa | 0 mm | - | - | - |
| 1777320129 | 12.78° C | 54% | 1017.3 hPa | 0 mm | - | - | - |
| 1777318340 | 13.33° C | 54% | 1017.4 hPa | 0 mm | - | - | - |
| 1777316531 | 13.89° C | 51% | 1017.4 hPa | 0 mm | - | - | - |
| 1777314729 | 15° C | 48% | 1017.2 hPa | 0 mm | - | - | - |
| 1777312929 | 16.11° C | 48% | 1017.2 hPa | 0 mm | - | - | - |
| 1777311131 | 17.22° C | 46% | 1017.2 hPa | 0 mm | - | - | - |
| 1777309331 | 17.22° C | 46% | 1017.3 hPa | 0 mm | - | - | - |
* Rain since midnight (hover to see other rain measurements)
** Current wind speed in m/s (hover to see current wind gust speed)